User: anonymous   Login
Location: *
(2.5500°S, 65.9667°W)
Time: 21:21:50
(UTC+00:00)
Language:

ARIANE 5 R/B - Orbit

View from above orbital plane
View from above orbital plane
View from above satellite
View from above satellite

Ground track
Ground track

The orbit data is extracted from the following two-line orbital elements,

1 36746U 10032C   22019.51693080  .00009147  00000-0  17000-2 0  9999
2 36746   1.9376  29.8972 7143252 259.0350  20.4208  2.46462347100857
Epoch (UTC): 19 January 2022 12:24:22
Eccentricity: 0.7143252
inclination: 1.9376°
perigee height: 235 km
apogee height: 33310 km
right ascension of ascending node: 29.8972°
argument of perigee: 259.0350°
revolutions per day: 2.46462347
mean anomaly at epoch: 20.4208°
orbit number at epoch: 10085

The dashed part of the orbit path shows where the satellite is in the earth's shadow,  

DLR